Temperature
19 18 18 18 18 18 17 17 17 17 17 17 17 17 16 16 16 16 16 16 16 16 15 15 15 15 15 15 15 15 15 15 15 14 14 14 14 14 13 13 13 13 13
18 18 18 18 18 17 17 17 17 17 17 16 16 16 16 16 16 16 15 15 15 15 15 15 14 14 14 14 14 14 15 14 14 14 14 13 13 13 13 13 13 13 12
18 18 18 18 18 17 17 17 17 17 16 16 16 16 16 16 16 15 15 15 15 15 14 14 14 14 14 14 14 14 14 14 14 14 13 13 13 12 12 12 12 12 12
18 18 18 18 17 17 17 17 17 16 16 15 15 15 15 15 15 15 14 14 14 14 14 14 14 14 14 14 14 13 13 13 13 13 13 13 12 12 12 12 12 11 11
18 18 17 17 17 17 17 17 16 16 15 15 15 15 15 15 14 14 14 14 14 14 14 13 13 13 13 13 13 13 13 13 13 13 13 12 12 12 12 11 11 11 11
18 18 17 17 17 16 16 16 16 15 15 15 15 15 14 14 14 14 14 13 13 13 13 13 13 13 13 13 13 13 13 12 12 12 12 12 11 11 11 11 11 11 10
18 17 17 16 16 16 16 15 15 15 15 15 14 14 14 14 14 14 13 13 13 13 13 12 12 12 12 12 12 12 12 12 12 11 11 11 11 11 11 11 10 10 10
17 17 16 16 16 16 15 15 15 15 14 14 14 14 14 14 13 13 13 12 12 12 12 12 12 12 12 11 11 11 11 11 11 11 11 11 10 10 10 10 10 10 9
17 16 16 16 16 15 15 15 15 14 14 13 13 13 13 13 13 13 12 12 12 11 11 11 11 11 11 11 11 11 10 10 10 10 10 10 10 10 10 10 10 10 10
17 16 16 16 15 15 15 15 14 14 13 13 13 13 13 13 12 12 12 11 11 11 11 11 11 11 11 11 10 10 10 10 10 10 10 9 9 9 9 9 9 10 10
16 16 16 16 15 15 15 14 14 13 13 13 13 12 12 12 12 12 12 11 11 11 11 10 10 10 10 10 10 10 10 9 10 10 10 9 9 9 9 9 9 9 9
16 16 15 15 15 14 14 14 13 13 13 12 12 12 11 11 11 11 11 11 11 10 10 10 10 10 10 10 10 10 10 10 10 10 10 9 9 9 8 8 8 8 8
16 16 15 15 14 14 14 13 13 13 12 12 11 11 11 11 11 11 11 11 10 10 10 10 10 10 9 9 9 9 10 10 10 10 10 9 9 8 8 8 8 8 8
16 15 15 15 14 14 13 13 12 12 12 11 11 11 11 10 10 10 10 10 10 10 9 9 9 9 9 9 9 9 9 9 9 9 9 9 9 8 9 8 8 8 8
16 15 14 14 14 13 13 13 12 12 12 11 11 11 11 10 10 10 10 9 9 9 9 9 9 9 9 9 9 9 9 9 9 9 9 9 9 9 8 8 8 8 8
15 15 14 14 13 13 13 12 12 12 12 11 11 11 10 10 10 10 10 10 10 9 9 10 10 10 10 10 10 9 9 9 8 9 9 9 9 9 8 8 8 8 8
15 14 14 13 13 12 12 12 12 11 11 11 11 10 10 10 10 10 9 9 9 9 9 10 10 9 9 9 9 9 9 8 8 8 8 8 8 8 8 8 8 8 8
14 14 14 13 13 12 12 12 11 11 10 10 10 10 10 10 9 9 9 9 9 9 9 10 9 9 9 9 9 9 8 8 8 8 8 8 8 8 8 8 8 8 8
14 13 13 13 12 12 12 11 11 11 11 10 10 10 10 9 9 9 9 9 10 10 10 9 9 9 9 8 8 8 8 8 8 8 8 7 8 8 8 8 8 7 7
14 13 13 12 12 12 11 11 11 11 11 10 10 10 10 9 9 9 9 9 9 9 9 9 9 8 8 8 8 8 8 8 7 8 8 7 7 7 8 7 8 8 8
13 13 13 12 12 12 11 11 11 11 11 10 10 10 10 10 10 9 9 9 9 9 9 9 8 8 8 8 8 8 7 8 7 7 7 7 7 7 7 7 7 7 7
13 13 12 12 12 12 11 11 11 11 10 10 10 9 9 10 10 10 9 9 9 8 8 8 8 8 8 8 7 7 7 7 7 7 7 7 7 7 7 7 7 7 7
13 12 12 12 12 12 11 11 11 11 10 10 10 10 9 10 10 9 9 9 9 8 8 8 8 8 8 7 7 7 7 7 7 6 6 6 7 7 7 7 6 7 7
13 12 12 12 12 11 11 11 11 10 10 10 10 10 10 9 9 9 9 9 9 8 8 8 8 7 7 7 7 7 6 6 6 6 6 6 6 6 6 6 6 6 6
12 12 12 12 11 11 11 11 11 10 10 10 10 10 10 9 9 9 9 9 8 8 8 8 8 7 7 7 6 6 6 6 6 6 5 6 6 6 6 6 6 6 6
12 12 12 12 11 11 11 11 11 10 10 10 10 10 10 10 9 9 9 9 9 8 8 8 7 7 7 7 6 6 6 6 6 6 6 5 5 6 5 5 5 5 5
Wind_Speed
5 4 4 3 3 3 3 3 3 3 3 3 3 3 3 3 3 3 2 2 2 3 3 3 3 3 3 2 2 2 2 2 1 1 2 2 3 3 4 4 4 5 6
6 5 5 4 4 4 4 4 4 4 4 3 3 4 4 4 4 3 3 3 3 4 4 4 4 3 3 3 2 2 1 1 1 1 1 2 3 3 3 3 4 5 6
7 7 6 6 5 5 5 5 5 4 4 4 4 4 4 4 4 4 4 4 4 5 5 5 4 4 4 3 3 2 2 2 2 2 2 2 3 3 3 3 5 4 5
8 8 7 6 6 6 6 5 5 5 5 5 5 5 5 5 5 4 4 5 5 5 6 6 6 6 5 4 3 4 3 3 3 3 3 3 3 3 3 3 4 4 4
8 8 7 7 6 6 6 6 6 6 6 6 6 6 6 6 6 5 5 5 5 6 6 7 8 9 11 9 6 5 4 3 3 3 3 3 3 3 3 2 3 3 4
8 8 7 7 6 6 6 7 7 7 7 7 7 7 7 7 9 9 5 6 6 6 6 6 7 9 10 12 13 13 11 6 4 4 4 4 4 3 3 2 2 2 3
9 8 8 7 7 7 7 7 7 7 7 7 7 8 8 8 9 8 7 6 7 6 6 6 6 7 7 7 9 9 11 12 9 6 5 4 4 3 2 3 3 3 3
9 8 8 7 7 7 7 7 7 7 7 7 7 7 8 8 8 6 5 6 8 8 7 7 7 8 8 7 7 8 9 9 8 7 6 6 6 5 3 3 3 4 4
9 9 8 7 7 7 7 7 7 7 7 7 7 7 7 7 8 6 4 6 7 8 8 9 8 9 9 7 6 7 7 8 10 11 9 8 9 8 6 3 3 2 3
9 9 8 8 8 8 7 7 7 7 7 7 7 7 7 7 7 7 6 5 6 7 7 8 12 9 9 8 5 6 7 6 6 6 7 6 8 8 7 6 4 3 3
9 9 8 8 8 8 8 7 7 7 7 7 7 7 7 6 7 8 8 4 5 5 6 7 7 9 9 8 6 6 4 2 4 5 6 6 6 6 7 7 7 5 4
10 9 8 8 8 8 8 8 7 7 7 7 6 6 6 6 6 6 8 7 6 6 5 6 7 7 7 8 7 5 5 4 3 4 5 5 5 6 6 7 7 7 6
10 9 9 8 7 8 8 8 7 6 5 5 5 5 5 5 6 6 5 6 6 5 6 8 6 4 4 6 5 4 4 2 4 4 4 5 5 5 3 4 4 4 6
10 10 9 9 8 7 6 6 5 5 5 4 4 5 5 5 4 4 5 5 6 5 5 6 6 3 2 4 2 1 4 5 4 4 4 3 3 3 3 3 3 2 4
10 9 9 8 8 7 5 3 3 3 2 2 4 4 4 4 4 4 2 3 2 3 2 3 3 3 3 3 3 3 3 3 3 3 3 3 3 3 3 3 3 2 3
10 9 8 8 7 7 7 6 10 7 8 8 8 4 5 7 7 5 5 5 4 2 2 2 2 1 2 2 2 2 3 3 2 2 2 2 2 2 3 3 2 2 3
9 9 8 8 8 7 8 8 7 5 6 6 5 5 6 7 6 5 4 3 1 3 2 1 1 1 1 1 1 2 2 2 2 2 2 2 2 2 2 2 2 2 2
9 8 8 7 7 7 7 7 7 8 7 5 4 4 5 6 5 5 5 5 4 4 2 1 1 1 1 1 1 1 1 1 1 1 1 2 2 2 2 2 2 3 3
9 8 7 7 7 7 7 7 7 7 7 7 7 6 6 7 6 5 5 4 3 3 2 2 1 1 1 1 1 1 1 1 1 2 1 2 2 2 2 2 2 0 3
7 8 8 8 7 7 7 7 7 7 6 6 6 6 8 8 6 6 5 4 3 2 2 2 1 0 0 0 0 1 1 1 1 2 1 2 2 2 2 3 3 3 2
8 9 9 8 8 7 7 7 7 7 7 6 5 4 2 6 5 5 5 4 3 3 2 2 2 2 1 1 1 1 2 2 2 2 2 2 2 3 3 3 3 3 3
8 9 9 8 7 7 7 7 7 6 7 7 6 6 5 5 4 5 5 4 4 3 3 3 2 2 1 1 1 2 2 2 2 2 2 3 3 3 3 3 4 4 4
8 9 9 8 7 8 8 7 7 7 7 6 6 6 6 5 5 5 4 4 4 4 4 3 3 2 2 2 2 2 2 2 2 3 4 4 4 3 3 3 4 5 4
8 9 9 8 8 8 8 7 7 7 7 6 6 6 6 6 5 5 5 4 4 4 5 4 4 3 3 3 3 3 1 2 4 4 4 5 5 4 4 4 5 5 5
8 8 8 8 8 8 8 7 7 7 7 7 6 6 6 6 6 6 5 5 5 5 6 6 5 5 5 5 4 2 1 1 4 6 6 6 6 5 6 6 5 6 6
7 8 7 7 8 8 8 8 7 7 7 6 6 6 6 6 6 5 5 5 5 5 6 6 6 6 6 6 5 3 3 4 5 7 8 7 6 6 6 6 7 7 7
Wind_Direction
151 149 140 134 129 122 103 94 86 74 71 70 66 63 56 50 45 37 25 23 24 17 1 359 353 335 328 320 307 293 279 244 227 327 27 56 61 65 68 71 77 81 78
141 135 129 122 117 109 97 90 91 86 78 73 71 68 59 53 48 43 38 33 27 19 9 4 359 354 352 339 341 342 359 56 153 119 42 59 58 70 70 65 72 77 81
136 131 124 119 110 101 93 89 89 89 80 74 70 68 61 57 57 52 50 45 40 35 27 23 17 17 14 14 8 25 42 74 94 110 88 75 66 71 75 74 70 66 77
138 132 126 120 113 107 99 92 91 91 84 77 73 69 66 63 60 59 62 61 56 53 48 44 38 34 26 25 38 41 48 70 83 95 89 82 72 58 57 68 73 63 60
139 131 126 121 117 113 106 99 94 89 86 81 78 73 68 65 53 53 69 69 65 66 62 60 58 55 47 41 43 46 50 58 74 80 82 78 66 50 41 43 69 78 65
140 132 128 127 120 113 107 102 96 89 85 83 80 77 71 64 44 34 40 76 71 69 66 65 72 66 65 64 58 52 45 48 50 55 68 67 53 39 37 46 64 65 62
138 134 134 132 123 115 112 106 100 96 92 87 84 82 79 66 50 43 28 65 74 68 65 61 63 64 65 71 78 76 62 51 42 44 59 50 52 40 45 70 63 56 56
140 139 137 133 127 122 116 107 101 98 96 92 88 86 84 70 52 44 30 78 76 72 67 62 64 61 49 46 71 72 66 56 51 54 57 49 51 44 46 78 91 101 94
145 145 142 137 133 130 123 117 112 108 103 99 91 87 87 79 52 32 9 91 85 77 71 64 63 67 33 17 71 77 79 82 80 77 71 71 67 55 31 55 75 89 91
147 144 143 140 138 133 128 123 119 115 112 107 97 90 88 84 55 26 351 93 93 93 87 80 63 52 31 14 67 75 76 69 72 84 87 86 77 72 57 36 29 47 75
143 141 141 137 135 134 131 127 128 125 117 111 107 100 92 85 76 43 15 64 90 94 91 84 72 51 43 30 42 65 46 22 82 84 85 79 74 66 57 49 31 28 34
142 141 141 141 141 138 135 132 132 132 130 128 125 119 111 100 78 68 46 35 26 85 83 87 86 74 62 50 56 29 326 309 69 72 69 64 58 56 58 56 50 51 49
147 146 144 143 140 141 142 141 144 152 150 146 145 136 126 120 112 101 86 63 39 76 85 80 90 111 129 96 68 335 315 37 58 61 60 57 57 56 60 84 91 91 86
150 147 147 147 144 142 147 151 153 155 155 155 149 139 133 137 133 139 140 134 138 125 118 128 148 148 121 96 134 69 57 45 36 53 55 58 60 67 61 53 54 66 77
152 152 153 152 147 143 131 102 126 102 91 140 149 147 147 141 104 47 65 115 112 106 140 148 140 128 115 96 85 65 62 72 60 52 48 52 55 57 56 53 38 33 56
157 160 160 156 153 151 140 120 57 65 66 51 40 53 97 95 113 100 77 62 50 345 263 134 114 93 77 77 79 88 80 58 41 38 34 30 32 39 45 42 30 28 38
164 164 162 159 161 161 157 154 144 109 80 73 68 66 90 122 127 134 136 132 181 249 222 153 117 89 65 59 50 47 62 63 18 13 19 15 5 10 24 28 26 10 9
165 161 164 163 165 164 165 165 163 159 157 147 128 125 135 143 152 163 177 187 184 203 204 169 137 107 82 45 35 28 26 44 19 343 354 346 338 337 350 352 7 351 337
169 169 168 165 167 168 169 168 165 164 161 156 154 154 166 167 171 186 207 221 194 181 177 165 155 137 123 100 32 351 342 348 353 315 327 321 315 313 324 320 324 337 297
171 160 167 171 170 170 171 168 166 168 169 168 170 168 169 184 185 179 195 211 212 196 187 169 150 119 42 280 256 283 278 278 277 282 313 302 302 306 308 305 312 310 302
170 167 174 179 176 175 172 170 170 174 175 175 174 158 189 196 187 182 185 190 199 193 187 187 178 188 196 229 254 271 291 299 304 312 310 302 305 305 303 304 301 302 307
173 173 180 181 174 174 170 171 175 177 178 177 170 165 184 215 196 189 189 187 188 190 188 205 212 202 217 234 252 274 276 284 297 302 301 295 290 293 297 302 308 310 304
177 176 176 174 171 163 174 178 179 181 178 177 178 177 184 201 200 197 192 186 185 189 192 203 221 211 195 217 242 260 277 294 299 303 293 289 289 289 290 295 294 294 301
180 178 176 175 175 177 181 181 183 182 178 181 188 189 190 194 202 197 198 194 192 196 203 210 220 216 214 231 237 238 260 307 301 286 286 288 287 288 287 285 288 296 294
181 182 180 179 180 181 181 183 184 184 187 190 195 196 195 196 200 200 201 201 205 207 208 214 217 219 220 230 244 256 126 226 281 293 281 274 278 281 285 287 289 291 290
178 180 182 182 183 185 186 188 188 189 190 193 196 198 201 202 202 201 203 208 209 205 211 215 219 223 228 235 233 213 193 227 251 268 275 275 274 275 284 284 286 283 283
Height
1550 1550 1551 1551 1551 1552 1552 1552 1552 1552 1552 1552 1552 1552 1552 1551 1551 1551 1550 1550 1549 1549 1548 1548 1547 1546 1546 1546 1546 1545 1545 1545 1545 1545 1545 1545 1544 1544 1543 1542 1542 1541 1540
1550 1550 1550 1551 1551 1551 1552 1552 1552 1552 1552 1552 1552 1551 1551 1551 1550 1550 1549 1549 1548 1548 1547 1546 1546 1545 1544 1544 1544 1544 1543 1543 1544 1544 1544 1544 1543 1542 1541 1541 1541 1540 1539
1549 1550 1550 1551 1551 1551 1551 1552 1552 1551 1551 1551 1551 1551 1551 1551 1550 1549 1549 1548 1548 1547 1546 1546 1545 1544 1543 1543 1543 1543 1543 1543 1543 1543 1543 1543 1542 1542 1541 1541 1540 1539 1539
1549 1550 1550 1551 1551 1551 1551 1551 1551 1551 1551 1552 1551 1551 1551 1551 1550 1549 1549 1548 1547 1547 1546 1545 1545 1544 1543 1543 1543 1543 1543 1543 1543 1543 1543 1543 1543 1542 1542 1541 1540 1540 1540
1548 1550 1551 1551 1551 1552 1552 1551 1551 1551 1552 1552 1552 1551 1551 1551 1550 1550 1549 1549 1548 1547 1547 1546 1545 1544 1544 1544 1543 1543 1543 1543 1543 1543 1543 1543 1543 1542 1542 1541 1540 1540 1539
1548 1549 1550 1551 1552 1552 1552 1552 1552 1551 1552 1552 1552 1552 1551 1551 1550 1550 1550 1549 1549 1548 1548 1547 1546 1545 1545 1545 1544 1544 1544 1544 1544 1544 1544 1543 1543 1542 1542 1541 1541 1540 1540
1547 1549 1550 1551 1552 1552 1553 1552 1552 1552 1552 1552 1552 1552 1552 1551 1551 1550 1550 1550 1549 1549 1549 1548 1548 1547 1547 1546 1546 1545 1545 1544 1544 1545 1544 1544 1543 1543 1542 1542 1541 1540 1540
1546 1548 1550 1551 1552 1552 1552 1553 1553 1553 1553 1553 1553 1553 1552 1552 1552 1551 1551 1551 1551 1550 1550 1549 1549 1548 1548 1548 1548 1547 1546 1546 1546 1545 1545 1544 1544 1543 1543 1543 1542 1541 1541
1546 1548 1549 1550 1551 1552 1552 1552 1553 1553 1553 1554 1554 1554 1553 1553 1553 1552 1552 1553 1552 1552 1551 1551 1550 1550 1549 1549 1549 1549 1548 1548 1548 1547 1546 1545 1545 1544 1543 1544 1543 1543 1542
1545 1547 1548 1549 1550 1551 1552 1552 1553 1554 1554 1554 1554 1555 1554 1554 1554 1554 1553 1555 1554 1554 1553 1553 1552 1552 1551 1551 1551 1550 1550 1550 1550 1550 1548 1548 1547 1546 1545 1544 1544 1544 1543
1543 1545 1547 1547 1549 1550 1551 1552 1553 1554 1554 1555 1555 1555 1555 1555 1555 1555 1555 1555 1556 1556 1556 1555 1554 1553 1553 1552 1552 1551 1551 1552 1552 1552 1551 1550 1550 1548 1547 1546 1545 1545 1544
1542 1544 1546 1547 1548 1549 1550 1551 1553 1554 1555 1555 1556 1556 1556 1556 1556 1556 1556 1556 1557 1557 1557 1557 1556 1555 1555 1554 1554 1553 1553 1554 1555 1554 1553 1552 1551 1550 1549 1548 1546 1545 1544
1540 1542 1544 1545 1547 1548 1549 1551 1552 1553 1555 1556 1557 1557 1557 1557 1557 1557 1557 1557 1557 1558 1558 1557 1557 1557 1557 1556 1555 1555 1555 1556 1556 1555 1555 1554 1553 1551 1551 1549 1548 1547 1546
1539 1541 1542 1544 1545 1547 1549 1551 1552 1553 1555 1556 1557 1558 1557 1558 1558 1558 1558 1558 1559 1559 1559 1559 1558 1558 1558 1558 1557 1557 1557 1556 1556 1556 1556 1555 1554 1553 1552 1551 1550 1550 1549
1537 1539 1541 1543 1544 1545 1547 1549 1551 1552 1554 1555 1556 1557 1557 1558 1558 1558 1559 1559 1560 1560 1560 1561 1561 1561 1561 1560 1560 1559 1558 1558 1558 1557 1557 1556 1555 1554 1553 1552 1551 1551 1550
1536 1537 1540 1541 1543 1544 1545 1547 1548 1550 1552 1553 1554 1555 1556 1556 1557 1557 1558 1559 1559 1559 1561 1561 1561 1561 1561 1561 1560 1560 1559 1559 1558 1558 1557 1557 1556 1555 1554 1553 1552 1552 1551
1534 1536 1538 1540 1541 1543 1544 1546 1547 1549 1551 1552 1553 1554 1555 1555 1556 1557 1558 1559 1559 1559 1560 1561 1561 1561 1561 1561 1561 1560 1560 1559 1558 1558 1557 1557 1556 1555 1554 1553 1553 1552 1551
1532 1534 1536 1538 1540 1541 1543 1545 1547 1548 1549 1550 1552 1552 1553 1554 1555 1556 1557 1558 1559 1559 1560 1560 1560 1560 1560 1560 1560 1560 1559 1559 1558 1558 1557 1556 1556 1555 1554 1553 1552 1552 1551
1530 1532 1534 1536 1538 1539 1541 1544 1545 1547 1548 1550 1550 1551 1552 1553 1554 1555 1556 1558 1559 1559 1559 1559 1559 1559 1560 1559 1559 1559 1559 1558 1557 1557 1556 1556 1555 1554 1554 1553 1552 1551 1550
1528 1530 1532 1534 1536 1538 1540 1541 1543 1545 1547 1548 1549 1550 1551 1552 1553 1554 1555 1556 1557 1558 1558 1558 1558 1558 1558 1558 1558 1558 1558 1557 1557 1556 1556 1555 1554 1554 1553 1552 1551 1550 1549
1525 1527 1529 1532 1534 1536 1537 1539 1541 1543 1545 1546 1547 1548 1549 1551 1553 1553 1554 1555 1556 1556 1556 1557 1557 1557 1557 1557 1557 1557 1556 1556 1556 1555 1555 1554 1553 1552 1552 1551 1550 1549 1548
1523 1525 1527 1530 1532 1534 1535 1537 1539 1541 1542 1544 1545 1546 1547 1549 1551 1552 1553 1553 1554 1554 1555 1555 1556 1555 1555 1555 1555 1555 1555 1554 1554 1553 1553 1552 1552 1551 1550 1549 1548 1547 1546
1520 1523 1525 1528 1530 1531 1533 1535 1537 1538 1540 1542 1544 1545 1546 1547 1549 1550 1551 1551 1552 1552 1553 1553 1553 1553 1553 1553 1553 1553 1552 1552 1552 1551 1551 1550 1550 1549 1548 1547 1546 1545 1544
1519 1521 1523 1525 1527 1529 1531 1532 1534 1536 1538 1540 1542 1543 1544 1545 1546 1547 1548 1549 1550 1550 1550 1551 1551 1551 1551 1550 1551 1550 1550 1549 1548 1548 1547 1547 1547 1547 1546 1545 1544 1543 1542
1516 1518 1520 1523 1525 1526 1528 1530 1532 1534 1536 1538 1540 1541 1542 1543 1544 1545 1546 1547 1547 1548 1548 1548 1548 1548 1548 1548 1548 1547 1546 1546 1545 1545 1545 1545 1545 1544 1543 1542 1541 1540 1540
1513 1515 1518 1520 1522 1524 1526 1528 1530 1532 1533 1535 1537 1539 1540 1541 1542 1543 1544 1544 1545 1545 1545 1546 1546 1546 1545 1545 1545 1544 1543 1543 1542 1542 1542 1542 1542 1541 1540 1539 1539 1538 1537